• In India
  • List of Countries
  • For 7 days
  • Water Temperature
  • Satellite Maps
  • Weather Map
  • Weather Widgets
  • user-avatar
    Login

    Hourly Weather New Delhi

    Today, 23 February, Friday

    Time Temperature Precipitation Wind Pressure Humidity
    00:00 +22°C° 0 mm 1 mps 737 mmHg 46%
    01:00 +21°C° 0 mm 1 mps 737 mmHg 48%
    02:00 +21°C° 0 mm 1 mps 737 mmHg 49%
    03:00 +20°C° 0 mm 1 mps 737 mmHg 51%
    04:00 +20°C° 0 mm 1 mps 737 mmHg 52%
    05:00 +20°C° 0 mm 1 mps 737 mmHg 54%
    06:00 +21°C° 0 mm 1 mps 738 mmHg 52%
    07:00 +22°C° 0 mm 1 mps 738 mmHg 51%
    08:00 +21°C° 0 mm 0 mps 739 mmHg 49%
    09:00 +25°C° 0 mm 1 mps 739 mmHg 44%
    10:00 +27°C° 0 mm 1 mps 739 mmHg 39%
    11:00 +30°C° 0 mm 1 mps 739 mmHg 34%
    12:00 +31°C° 0 mm 1 mps 739 mmHg 31%
    13:00 +32°C° 0 mm 1 mps 738 mmHg 29%
    14:00 +33°C° 0 mm 1 mps 737 mmHg 26%
    15:00 +32°C° 0 mm 1 mps 737 mmHg 28%
    16:00 +31°C° 0 mm 1 mps 737 mmHg 30%
    17:00 +30°C° 0 mm 1 mps 737 mmHg 32%
    18:00 +28°C° 0 mm 1 mps 737 mmHg 33%
    19:00 +27°C° 0 mm 2 mps 737 mmHg 34%
    20:00 +26°C° 0 mm 2 mps 738 mmHg 35%
    21:00 +25°C° 0 mm 2 mps 738 mmHg 37%
    22:00 +24°C° 0 mm 2 mps 738 mmHg 38%
    23:00 +24°C° 0 mm 2 mps 738 mmHg 40%

    Tomorrow, 24 February, Saturday

    Time Temperature Precipitation Wind Pressure Humidity
    00:00 +23°C° 0 mm 2 mps 738 mmHg 40%
    01:00 +23°C° 0 mm 2 mps 738 mmHg 40%
    02:00 +23°C° 0 mm 2 mps 738 mmHg 40%
    03:00 +23°C° 0 mm 2 mps 738 mmHg 41%
    04:00 +21°C° 0 mm 2 mps 738 mmHg 42%
    05:00 +21°C° 0 mm 2 mps 738 mmHg 44%
    06:00 +22°C° 0 mm 1 mps 739 mmHg 46%
    07:00 +23°C° 0 mm 1 mps 739 mmHg 48%
    08:00 +23°C° 0 mm 1 mps 740 mmHg 50%
    09:00 +25°C° 0 mm 2 mps 740 mmHg 46%
    10:00 +27°C° 0 mm 3 mps 741 mmHg 41%
    11:00 +29°C° 0 mm 4 mps 741 mmHg 37%
    12:00 +30°C° 0 mm 4 mps 740 mmHg 34%
    13:00 +32°C° 0 mm 4 mps 739 mmHg 32%
    14:00 +33°C° 0 mm 4 mps 739 mmHg 30%
    15:00 +32°C° 0.2 mm 4 mps 738 mmHg 35%
    16:00 +29°C° 0.2 mm 4 mps 738 mmHg 40%
    17:00 +28°C° 0.2 mm 4 mps 738 mmHg 45%
    18:00 +27°C° 0.1 mm 4 mps 738 mmHg 46%
    19:00 +25°C° 0.1 mm 4 mps 739 mmHg 46%
    20:00 +23°C° 0.1 mm 4 mps 739 mmHg 47%
    21:00 +22°C° 0.1 mm 4 mps 739 mmHg 48%
    22:00 +21°C° 0.1 mm 4 mps 739 mmHg 50%
    23:00 +20°C° 0.1 mm 3 mps 740 mmHg 52%

    Day after tomorrow, 25 February, Sunday

    Time Temperature Precipitation Wind Pressure Humidity
    00:00 +20°C° 0.1 mm 3 mps 740 mmHg 54%
    01:00 +19°C° 0.1 mm 2 mps 740 mmHg 57%
    02:00 +19°C° 0.1 mm 2 mps 740 mmHg 59%
    03:00 +19°C° 0 mm 2 mps 740 mmHg 60%
    04:00 +18°C° 0 mm 2 mps 740 mmHg 60%
    05:00 +18°C° 0 mm 2 mps 740 mmHg 61%
    06:00 +20°C° 0 mm 1 mps 741 mmHg 59%
    07:00 +21°C° 0 mm 1 mps 742 mmHg 57%
    08:00 +22°C° 0 mm 1 mps 742 mmHg 54%
    09:00 +24°C° 0 mm 1 mps 742 mmHg 48%
    10:00 +26°C° 0 mm 1 mps 743 mmHg 41%
    11:00 +29°C° 0 mm 1 mps 743 mmHg 34%
    12:00 +30°C° 0 mm 1 mps 742 mmHg 33%
    13:00 +31°C° 0 mm 1 mps 741 mmHg 31%
    14:00 +32°C° 0 mm 1 mps 740 mmHg 29%
    15:00 +31°C° 0 mm 2 mps 740 mmHg 31%
    16:00 +30°C° 0 mm 2 mps 739 mmHg 34%
    17:00 +29°C° 0 mm 2 mps 739 mmHg 37%
    18:00 +28°C° 0 mm 2 mps 739 mmHg 39%
    19:00 +26°C° 0 mm 2 mps 740 mmHg 41%
    20:00 +25°C° 0 mm 3 mps 740 mmHg 44%
    21:00 +24°C° 0 mm 3 mps 740 mmHg 46%
    22:00 +22°C° 0 mm 3 mps 740 mmHg 49%
    23:00 +21°C° 0 mm 3 mps 740 mmHg 51%

    26 February, Monday

    Time Temperature Precipitation Wind Pressure Humidity
    00:00 +21°C° 0 mm 3 mps 740 mmHg 52%
    01:00 +20°C° 0 mm 3 mps 740 mmHg 53%
    02:00 +19°C° 0 mm 3 mps 740 mmHg 54%
    03:00 +19°C° 0 mm 3 mps 739 mmHg 56%
    04:00 +18°C° 0 mm 3 mps 739 mmHg 57%
    05:00 +18°C° 0 mm 3 mps 739 mmHg 59%
    06:00 +18°C° 0 mm 3 mps 740 mmHg 57%
    07:00 +19°C° 0 mm 3 mps 740 mmHg 56%
    08:00 +20°C° 0 mm 4 mps 741 mmHg 54%
    09:00 +22°C° 0 mm 4 mps 741 mmHg 47%
    10:00 +26°C° 0 mm 4 mps 741 mmHg 39%
    11:00 +28°C° 0 mm 5 mps 741 mmHg 32%
    12:00 +29°C° 0 mm 5 mps 740 mmHg 29%
    13:00 +30°C° 0 mm 5 mps 739 mmHg 26%
    14:00 +32°C° 0 mm 5 mps 738 mmHg 23%
    15:00 +32°C° 0 mm 4 mps 738 mmHg 26%
    16:00 +30°C° 0 mm 3 mps 738 mmHg 28%
    17:00 +29°C° 0 mm 3 mps 738 mmHg 31%
    18:00 +27°C° 0 mm 3 mps 738 mmHg 32%
    19:00 +26°C° 0 mm 2 mps 739 mmHg 34%
    20:00 +24°C° 0 mm 2 mps 739 mmHg 35%
    21:00 +24°C° 0 mm 2 mps 739 mmHg 36%
    22:00 +23°C° 0 mm 2 mps 739 mmHg 38%
    23:00 +21°C° 0 mm 2 mps 739 mmHg 39%

    27 February, Tuesday

    Time Temperature Precipitation Wind Pressure Humidity
    00:00 +21°C° 0 mm 2 mps 739 mmHg 40%
    01:00 +20°C° 0 mm 2 mps 739 mmHg 41%
    02:00 +20°C° 0 mm 2 mps 738 mmHg 42%
    03:00 +20°C° 0 mm 2 mps 738 mmHg 43%
    04:00 +19°C° 0 mm 2 mps 738 mmHg 43%
    05:00 +19°C° 0 mm 2 mps 738 mmHg 44%
    06:00 +20°C° 0 mm 2 mps 739 mmHg 43%
    07:00 +20°C° 0 mm 2 mps 739 mmHg 42%
    08:00 +21°C° 0 mm 3 mps 740 mmHg 41%
    09:00 +25°C° 0 mm 3 mps 740 mmHg 36%
    10:00 +27°C° 0 mm 4 mps 740 mmHg 31%
    11:00 +30°C° 0 mm 4 mps 740 mmHg 26%
    12:00 +32°C° 0 mm 5 mps 739 mmHg 24%
    13:00 +33°C° 0 mm 5 mps 739 mmHg 23%
    14:00 +34°C° 0 mm 5 mps 738 mmHg 22%
    15:00 +33°C° 0 mm 4 mps 738 mmHg 24%
    16:00 +32°C° 0 mm 4 mps 737 mmHg 27%
    17:00 +30°C° 0 mm 3 mps 737 mmHg 29%
    18:00 +28°C° 0 mm 3 mps 737 mmHg 30%
    19:00 +27°C° 0 mm 3 mps 738 mmHg 32%
    20:00 +25°C° 0 mm 2 mps 738 mmHg 33%
    21:00 +25°C° 0 mm 2 mps 738 mmHg 34%
    22:00 +24°C° 0 mm 2 mps 738 mmHg 34%
    23:00 +23°C° 0 mm 2 mps 738 mmHg 35%

    28 February, Wednesday

    Time Temperature Precipitation Wind Pressure Humidity
    00:00 +23°C° 0 mm 2 mps 738 mmHg 35%
    01:00 +23°C° 0 mm 2 mps 737 mmHg 36%
    02:00 +21°C° 0 mm 3 mps 737 mmHg 36%
    03:00 +21°C° 0 mm 3 mps 737 mmHg 36%
    04:00 +21°C° 0 mm 3 mps 737 mmHg 37%
    05:00 +20°C° 0 mm 3 mps 737 mmHg 38%
    06:00 +21°C° 0 mm 3 mps 738 mmHg 38%
    07:00 +22°C° 0 mm 3 mps 738 mmHg 38%
    08:00 +24°C° 0 mm 3 mps 739 mmHg 38%
    09:00 +27°C° 0 mm 4 mps 739 mmHg 33%
    10:00 +30°C° 0 mm 4 mps 739 mmHg 27%
    11:00 +34°C° 0 mm 5 mps 739 mmHg 22%
    12:00 +34°C° 0 mm 5 mps 738 mmHg 21%
    13:00 +35°C° 0 mm 5 mps 738 mmHg 19%
    14:00 +36°C° 0 mm 6 mps 737 mmHg 18%
    15:00 +35°C° 0 mm 5 mps 737 mmHg 20%
    16:00 +34°C° 0 mm 4 mps 737 mmHg 22%
    17:00 +33°C° 0 mm 3 mps 736 mmHg 24%
    18:00 +30°C° 0 mm 3 mps 737 mmHg 26%
    19:00 +28°C° 0 mm 3 mps 737 mmHg 27%
    20:00 +27°C° 0 mm 3 mps 737 mmHg 29%
    21:00 +26°C° 0 mm 2 mps 737 mmHg 31%
    22:00 +25°C° 0 mm 2 mps 737 mmHg 32%
    23:00 +24°C° 0 mm 2 mps 737 mmHg 34%
    Show more